Starlink 30611

operational
NORAD ID: 58108 Int'l Des: 2023-161 Owner: SPXS Country: US Constellation: starlink
LEOCIRCULAR

About Starlink 30611

Description loading...

Live Position

Loading 3D Globe...

Upcoming Passes

Altitude History

Altitude vs Time

uPlot chart will show altitude changes over time

Two-Line Element Set

1 58108U 23161M 26102.42497124 .00001377 00000-0 58654-4 0 9999
2 58108 53.1625 356.0586 0001200 75.7770 284.3364 15.30182522139760
Epoch: Apr 12, 2026 • Age: 9 hours

Current Status

Altitude 475.5 km
Velocity 7.63 km/s
Sub-Earth Point 3.91°N, 138.25°W
Launch Date Oct 21, 2023
Age 2.4 years
Type internet

Technical Details

Classification Payload
Mass 730.00 kg
Dry Mass 700.00 kg
Total Mass 730.00 kg
Length 0.30 m
Diameter 4.10 m
Span 29.00 m
Shape Box + pan
Manufacturer SPXS
Bus Type Starlink V2M
Phase Status In Orbit
Owner/State SPXS/US

Large Constellations

Loading constellations...